This demonstration page uses our WeatherBlox Daily Observations layout. Learn more.

Hourly Observations for February 23, 2018

Temp ( °F °C ) Dew Point ( °F °C ) Humidity (%) Winds ( mph kmh ) Pressure ( in mb ) Visibility ( mi km ) Precip ( " mm )
12:15 am 00:15 Cloudy 24 -4.5 22 -5.4 94 94 W 6 9 30.27 1025 10 16.0934 0 0
12:35 am 00:35 Cloudy 24 -4.5 22 -5.4 94 94 W 6 9 30.27 1025 10 16.0934 0 0
12:55 am 00:55 Cloudy 22 -5.4 21 -6.1 95 95 W 6 9 30.3 1026 10 16.0934 0 0
1:15 am 01:15 Mostly Cloudy 21 -6 20 -6.8 94 94 W 7 11 30.3 1026 10 16.0934 0 0
1:35 am 01:35 Partly Cloudy 21 -6.2 20 -6.8 96 96 W 7 11 30.3 1026 10 16.0934 0 0
1:55 am 01:55 Clear 21 -6 20 -6.6 96 96 W 9 15 30.3 1026 10 16.0934 0 0
2:15 am 02:15 Clear 20 -6.5 19 -7.2 95 95 W 10 17 30.3 1026 10 16.0934 0 0
2:35 am 02:35 Clear 20 -6.4 19 -7.1 95 95 W 7 11 30.3 1026 10 16.0934 0 0
2:55 am 02:55 Clear 20 -6.5 19 -7.2 95 95 W 8 13 30.33 1027 10 16.0934 0 0
3:15 am 03:15 Clear 20 -6.6 19 -7.2 96 96 W 8 13 30.33 1027 10 16.0934 0 0
3:35 am 03:35 Clear 19 -7.2 18 -7.8 96 96 WSW 7 11 30.33 1027 10 16.0934 0 0
3:55 am 03:55 Clear 19 -7.1 18 -7.6 96 96 W 8 13 30.33 1027 10 16.0934 0 0
4:15 am 04:15 Clear 19 -7.1 18 -7.6 96 96 W 9 15 30.33 1027 10 16.0934 0 0
4:35 am 04:35 Clear 19 -7.5 18 -8 96 96 W 9 15 30.33 1027 10 16.0934 0 0
4:55 am 04:55 Clear 18 -7.8 17 -8.2 97 97 W 6 9 30.33 1027 10 16.0934 0 0
5:15 am 05:15 Clear 17 -8.5 17 -8.6 99 99 W 5 7 30.36 1028 10 16.0934 0 0
5:35 am 05:35 Partly Cloudy 17 -8.5 16 -8.7 98 98 W 6 9 30.36 1028 10 16.0934 0 0
5:55 am 05:55 Cloudy with Mist and Fog 18 -7.6 18 -7.7 99 99 WNW 6 9 30.33 1027 1.25 2.011675 0 0
6:15 am 06:15 Cloudy with Mist and Fog 19 -7.5 18 -7.6 99 99 WNW 3 6 30.33 1027 1 1.60934 0 0
6:35 am 06:35 Cloudy with Mist and Fog 19 -7.5 18 -7.7 98 98 WNW 6 9 30.33 1027 0.75 1.207005 0 0
6:55 am 06:55 Cloudy with Mist and Fog 18 -7.7 18 -8 98 98 WNW 8 13 30.33 1027 0.75 1.207005 0 0
7:15 am 07:15 Cloudy with Mist and Fog 17 -8.1 17 -8.5 97 97 NW 6 9 30.36 1028 1 1.60934 0 0
7:35 am 07:35 Cloudy with Mist and Fog 17 -8.6 16 -8.9 98 98 NW 6 9 30.36 1028 1 1.60934 0 0
7:55 am 07:55 Partly Cloudy 16 -8.7 16 -9 98 98 NW 6 9 30.36 1028 10 16.0934 0 0
8:15 am 08:15 Sunny 17 -8.2 17 -8.5 98 98 NW 7 11 30.36 1028 10 16.0934 0 0
8:35 am 08:35 Sunny 18 -7.7 18 -8 98 98 NW 7 11 30.33 1027 10 16.0934 0 0
8:55 am 08:55 Sunny 20 -6.9 19 -7 99 99 NW 5 7 30.36 1028 10 16.0934 0 0
9:15 am 09:15 Sunny 21 -6.1 21 -6.2 99 99 NW 5 7 30.36 1028 10 16.0934 0 0
9:35 am 09:35 Sunny 22 -5.7 22 -5.8 99 99 NNW 6 9 30.39 1029 10 16.0934 0 0
9:55 am 09:55 Sunny 22 -5.3 22 -5.4 99 99 N 6 9 30.39 1029 10 16.0934 0 0
10:15 am 10:15 Sunny 24 -4.5 22 -5.4 94 94 NNE 5 7 30.39 1029 10 16.0934 0 0
10:35 am 10:35 Sunny 25 -4 23 -5.1 92 92 NE 5 7 30.36 1028 10 16.0934 0 0
10:55 am 10:55 Sunny 26 -3.5 24 -4.7 92 92 Calm 30.39 1029 10 16.0934 0 0
11:15 am 11:15 Partly Cloudy 27 -2.6 25 -4.1 90 90 ENE 5 7 30.39 1029 10 16.0934 0 0
11:35 am 11:35 Partly Cloudy 28 -2.1 25 -3.7 89 89 E 5 7 30.39 1029 10 16.0934 0 0
11:55 am 11:55 Partly Cloudy 30 -1.3 25 -3.7 84 84 E 3 6 30.39 1029 10 16.0934 0 0
12:15 pm 12:15 Partly Cloudy 30 -1.2 25 -3.9 82 82 E 3 6 30.33 1027 10 16.0934 0 0
12:35 pm 12:35 Mostly Cloudy 32 0 24 -4.2 74 74 ENE 3 6 30.33 1027 10 16.0934 0 0
12:55 pm 12:55 Mostly Cloudy 32 0 25 -4.1 74 74 ENE 6 9 30.33 1027 10 16.0934 0 0
1:15 pm 13:15 Mostly Cloudy 32 0.1 25 -4 74 74 NE 6 9 30.33 1027 10 16.0934 0 0
1:35 pm 13:35 Mostly Cloudy 34 1 25 -3.9 70 70 Calm 30.3 1026 10 16.0934 0 0
1:55 pm 13:55 Partly Cloudy 33 0.3 24 -4.3 72 72 NE 6 9 30.3 1026 10 16.0934 0 0
2:15 pm 14:15 Partly Cloudy 33 0.4 24 -4.4 71 71 NE 9 15 30.3 1026 10 16.0934 0 0
2:35 pm 14:35 Partly Cloudy 33 0.7 25 -4 71 71 E 9 15 30.3 1026 10 16.0934 0 0
2:55 pm 14:55 Sunny 33 0.5 24 -4.3 71 71 ENE 8 13 30.27 1025 10 16.0934 0 0
3:15 pm 15:15 Sunny 33 0.4 24 -4.4 71 71 NE 7 11 30.27 1025 10 16.0934 0 0
3:35 pm 15:35 Sunny 33 0.6 24 -4.2 71 71 NE 7 11 30.27 1025 10 16.0934 0 0
3:55 pm 15:55 Sunny 32 0.2 24 -4.5 71 71 ENE 10 17 30.27 1025 10 16.0934 0 0
4:15 pm 16:15 Sunny 32 0 24 -4.7 71 71 NE 9 15 30.27 1025 10 16.0934 0 0
4:35 pm 16:35 Sunny 31 -0.3 23 -4.8 72 72 NE 10 17 30.24 1024 10 16.0934 0 0
4:55 pm 16:55 Sunny 30 -1.1 23 -5 75 75 ENE 10 17 30.27 1025 10 16.0934 0 0
5:15 pm 17:15 Sunny 30 -1.3 23 -4.9 77 77 ENE 13 20 30.27 1025 10 16.0934 0 0
5:35 pm 17:35 Sunny 28 -2.2 23 -5 81 81 NE 13 20 30.3 1026 10 16.0934 0 0
5:55 pm 17:55 Sunny 27 -3 23 -5.1 86 86 NE 13 20 30.3 1026 10 16.0934 0 0
6:15 pm 18:15 Mostly Cloudy 26 -3.5 23 -5.1 89 89 NE 14 22 30.3 1026 10 16.0934 0 0
6:35 pm 18:35 Cloudy 25 -3.7 23 -5 91 91 NE 14 22 30.27 1025 10 16.0934 0 0
6:55 pm 18:55 Cloudy 25 -3.8 23 -5 91 91 NE 14 22 30.27 1025 10 16.0934 0 0
7:15 pm 19:15 Cloudy 25 -4 23 -5 93 93 ENE 10 17 30.27 1025 10 16.0934 0 0
7:35 pm 19:35 Cloudy 24 -4.2 23 -5.1 94 94 ENE 14 22 30.27 1025 10 16.0934 0 0
7:55 pm 19:55 Cloudy 24 -4.5 23 -5 96 96 ENE 13 20 30.27 1025 10 16.0934 0 0
8:15 pm 20:15 Cloudy 24 -4.6 23 -5.1 96 96 ENE 14 22 30.27 1025 10 16.0934 0 0
8:35 pm 20:35 Cloudy 24 -4.7 23 -5.1 97 97 E 10 17 30.3 1026 10 16.0934 0 0
8:55 pm 20:55 Cloudy 24 -4.6 23 -5 97 97 ENE 12 19 30.3 1026 10 16.0934 0 0
9:15 pm 21:15 Cloudy 24 -4.6 23 -5 97 97 E 13 20 30.27 1025 10 16.0934 0 0
9:35 pm 21:35 Cloudy 24 -4.7 23 -5.1 97 97 ENE 15 24 30.27 1025 10 16.0934 0 0
9:55 pm 21:55 Cloudy 23 -4.8 22 -5.3 96 96 ENE 14 22 30.27 1025 10 16.0934 0 0
10:15 pm 22:15 Cloudy 23 -5 22 -5.5 96 96 E 12 19 30.27 1025 10 16.0934 0 0
10:35 pm 22:35 Cloudy 23 -5 22 -5.3 98 98 ENE 14 22 30.27 1025 10 16.0934 0 0
10:55 pm 22:55 Cloudy 23 -5 22 -5.4 97 97 ENE 10 17 30.27 1025 10 16.0934 0 0
11:15 pm 23:15 Cloudy 23 -4.8 22 -5.3 96 96 E 10 17 30.27 1025 10 16.0934 0 0
11:35 pm 23:35 Cloudy 24 -4.6 23 -5.2 96 96 E 13 20 30.27 1025 10 16.0934 0 0
11:55 pm 23:55 Cloudy 23 -4.8 22 -5.7 94 94 ESE 10 17 30.27 1025 10 16.0934 0 0

Powered by AerisWeather